ONEWEB-0146

Last updated on Mon Jan 18 2021 00:02:03 GMT+0000 (Coordinated Universal Time)

1 47292U 20100AL 21017.58334491 -.01475771 00000-0 -10003+0 0 9992 2 47292 87.4166 29.0968 0012666 155.7258 235.3307 15.09732913 1910

Satellite not in orbit